User: anonymous   Login
Location: Unspecified
(0.0000°N, 0.0000°E)
Time: 17:21:57
(UTC+00:00)
Language:

SL-12 R/B(2) - Orbit

View from above orbital plane
View from above orbital plane
View from above satellite
View from above satellite

Ground track
Ground track

The orbit data is extracted from the following two-line orbital elements,

1 26486U 00051D   20022.67151399 -.00000206  00000-0  00000+0 0  9997
2 26486  62.6929  65.7305 7431444 267.7587 320.1327  1.45765003103156
Epoch (UTC): 22 January 2020 16:06:58
Eccentricity: 0.7431444
inclination: 62.6929°
perigee height: 2061 km
apogee height: 50896 km
right ascension of ascending node: 65.7305°
argument of perigee: 267.7587°
revolutions per day: 1.45765003
mean anomaly at epoch: 320.1327°
orbit number at epoch: 10315

The dashed part of the orbit path shows where the satellite is in the earth's shadow,  

DLR